1497085200.58,17181,19.63,74150.8,6.69,3.03,3.03,0,*7A
1497085201.84,17182,19.63,74148.8,6.69,3.15,3.07,0,*7A
1497085203.1,17183,19.63,74152.0,6.69,3.15,3.11,0,*7C
1497085204.36,17184,19.63,74152.0,6.69,3.11,3.15,0,*7B
1497085205.61,17185,19.63,74152.3,6.69,3.15,3.11,0,*7A
1497085206.87,17186,19.63,74152.3,6.69,3.03,3.11,0,*7E
1497085208.12,17187,19.63,74152.5,6.69,3.23,3.23,0,*7C
1497085209.35,17188,19.63,74152.3,6.69,3.25,3.15,0,*70
1497085210.57,17189,19.63,74150.3,6.69,3.25,3.23,0,*74
1497085211.8,17190,19.63,74150.3,6.69,3.25,3.23,0,*7C
1497085213.02,17191,19.63,74154.3,6.69,3.25,3.23,0,*7D
1497085214.28,17192,19.63,74154.0,6.69,3.23,3.15,0,*7D
1497085215.51,17193,19.63,74152.3,6.67,3.11,3.19,0,*7F
1497085216.77,17194,19.63,74148.5,6.69,3.11,3.15,0,*7A
1497085218.0,17195,19.63,74152.5,6.67,3.11,3.07,0,*76
1497085219.21,17196,19.63,74154.5,6.67,3.07,2.99,0,*74
1497085220.4,17197,19.63,74154.0,6.67,2.95,2.91,0,*77
1497085221.63,17198,19.63,74154.5,6.67,2.73,2.81,0,*71
1497085222.86,17199,19.63,74154.0,6.67,2.81,2.69,0,*7B
1497085224.04,17200,19.63,74152.0,6.67,2.95,2.95,0,*7E
1497085225.24,17201,19.63,74150.3,6.63,2.89,2.91,0,*72
1497085226.44,17202,19.63,74150.0,6.65,2.91,2.95,0,*7A
1497085227.67,17203,19.63,74152.0,6.63,3.15,3.07,0,*7A
1497085228.91,17204,19.63,74150.0,6.63,3.07,3.03,0,*7A
1497085230.17,17205,19.63,74152.3,6.65,2.89,2.89,0,*79
1497085231.37,17206,19.63,74150.3,6.63,2.77,2.65,0,*7F
1497085232.6,17207,19.63,74154.0,6.63,2.81,2.77,0,*74
1497085233.83,17208,19.63,74152.8,6.63,2.89,2.81,0,*7A
1497085235.07,17209,19.63,74152.5,6.63,2.81,2.81,0,*73
1497085236.29,17210,19.63,74152.5,6.63,2.77,2.69,0,*74
1497085237.52,17211,19.63,74154.3,6.63,2.77,2.81,0,*73
1497085238.75,17212,19.63,74154.0,6.63,2.89,2.89,0,*79
1497085239.98,17213,19.63,74150.0,6.63,2.81,2.81,0,*78
1497085241.22,17214,19.63,74150.8,6.65,2.91,2.81,0,*78
1497085242.45,17215,19.63,74152.0,6.63,2.77,2.77,0,*7E
1497085243.71,17216,19.63,74152.8,6.61,2.51,2.43,0,*7C
1497085244.94,17217,19.63,74152.5,6.59,2.51,2.43,0,*76
1497085246.17,17218,19.63,74152.0,6.59,2.85,2.73,0,*73
1497085247.43,17219,19.63,74154.3,6.61,2.85,2.89,0,*7C
1497085248.66,17220,19.63,74154.3,6.59,2.85,2.77,0,*7C
1497085249.91,17221,19.63,74152.3,6.61,2.85,2.77,0,*76
1497085251.14,17222,19.63,74152.3,6.59,2.89,2.89,0,*73
1497085252.37,17223,19.63,74158.0,6.59,2.85,2.77,0,*7F
1497085253.56,17224,19.63,74154.3,6.59,2.91,2.91,0,*75
1497085254.79,17225,19.63,74154.3,6.59,3.15,3.11,0,*70
1497085256.03,17226,19.63,74154.0,6.59,3.11,3.11,0,*77
1497085257.24,17227,19.63,74156.0,6.59,2.99,3.03,0,*74
1497085258.48,17228,19.63,74154.8,6.57,3.07,2.99,0,*71
1497085259.72,17229,19.63,74152.8,6.53,2.85,2.85,0,*72
1497085260.95,17230,19.63,74152.0,6.53,3.03,2.91,0,*70
1497085262.16,17231,19.63,74154.3,6.57,2.95,2.99,0,*73
1497085263.36,17232,19.63,74152.0,6.53,2.95,2.95,0,*78
1497085264.58,17233,19.63,74152.5,6.53,3.03,2.95,0,*77
1497085265.79,17234,19.63,74154.0,6.57,2.99,2.99,0,*7A
1497085267.04,17235,19.63,74152.8,6.57,2.73,2.69,0,*70
1497085268.26,17236,19.63,74156.3,6.53,2.91,2.85,0,*79
1497085269.47,17237,19.63,74154.0,6.57,2.99,2.95,0,*75
1497085270.7,17238,19.63,74154.3,6.57,2.99,3.07,0,*70
1497085271.96,17239,19.63,74152.8,6.57,3.07,3.07,0,*77
1497085273.21,17240,19.63,74156.8,6.57,2.85,2.85,0,*79
1497085274.46,17241,19.63,74156.0,6.53,2.85,2.85,0,*7C
1497085275.66,17242,19.63,74152.8,6.53,2.95,2.95,0,*7F
1497085276.86,17243,19.63,74152.8,6.53,2.95,2.95,0,*7E
1497085278.11,17244,19.63,74156.3,6.57,2.85,2.85,0,*7D
1497085279.31,17245,19.63,74154.0,6.53,2.95,2.95,0,*78
1497085280.56,17246,19.63,74152.8,6.53,3.03,3.07,0,*7F
1497085281.79,17247,19.63,74154.5,6.53,2.95,3.07,0,*70
1497085283.04,17248,19.63,74154.3,6.53,3.03,3.07,0,*71
1497085284.3,17249,19.63,74154.3,6.53,3.03,3.15,0,*73
1497085285.56,17250,19.63,74154.5,6.53,3.07,3.07,0,*7C
1497085286.82,17251,19.63,74152.0,6.53,3.07,3.07,0,*7D
1497085288.02,17252,19.63,74152.0,6.57,2.99,2.99,0,*7A
1497085289.23,17253,19.63,74156.0,6.53,2.91,2.91,0,*7F
1497085290.48,17254,19.63,74154.0,6.53,2.81,2.77,0,*71
1497085291.73,17255,19.63,74156.5,6.53,2.85,2.85,0,*79
1497085292.97,17256,19.63,74154.5,6.53,2.85,2.85,0,*7A
1497085294.18,17257,19.63,74156.5,6.51,2.91,2.91,0,*79
1497085295.44,17258,19.63,74156.5,6.51,3.03,3.03,0,*76
1497085296.64,17259,19.63,74154.5,6.51,2.95,2.91,0,*73
1497085297.88,17260,19.63,74152.0,6.51,3.03,2.95,0,*73
1497085299.08,17261,19.63,74158.0,6.51,2.91,2.91,0,*7C
1497085300.33,17262,19.63,74154.3,6.51,2.85,2.85,0,*7F
1497085301.58,17263,19.63,74154.5,6.51,2.85,2.85,0,*7E
1497085302.81,17264,19.63,74152.5,6.49,2.81,2.77,0,*79
1497085304.03,17265,19.63,74152.0,6.49,2.73,2.73,0,*71
1497085305.26,17266,19.63,74154.3,6.49,2.73,2.77,0,*76
1497085306.49,17267,19.63,74154.3,6.49,2.81,2.89,0,*7B
1497085307.69,17268,19.63,74154.5,6.49,2.89,2.91,0,*75
1497085308.92,17269,19.63,74152.0,6.49,2.73,2.81,0,*70
1497085310.13,17270,19.63,74154.8,6.49,2.65,2.73,0,*72
1497085311.33,17271,19.63,74154.5,6.49,2.61,2.73,0,*77
1497085312.57,17272,19.63,74154.3,6.49,2.81,2.81,0,*77
1497085313.82,17273,19.63,74152.5,6.47,2.59,2.69,0,*7B
1497085315.07,17274,19.56,74148.8,6.47,2.59,2.59,0,*7F
1497085316.33,17275,19.63,74152.5,6.47,2.47,2.59,0,*71
1497085317.54,17276,19.63,74152.3,6.45,2.73,2.85,0,*76
1497085318.8,17277,19.63,74152.0,6.47,2.89,2.89,0,*7C
1497085320.05,17278,19.63,74156.0,6.47,2.77,2.73,0,*77
1497085321.27,17279,19.63,74154.0,6.45,2.73,2.77,0,*74
1497085322.49,17280,19.63,74154.8,6.45,2.77,2.85,0,*7B
1497085323.69,17281,19.63,74154.5,6.43,2.95,2.95,0,*71
1497085324.91,17282,19.63,74156.5,6.43,2.95,2.85,0,*73
1497085326.11,17283,19.63,74152.5,6.43,2.95,2.95,0,*73
1497085327.32,17284,19.63,74152.8,6.41,3.03,2.95,0,*78
1497085328.57,17285,19.63,74154.3,6.43,3.03,2.85,0,*7A
1497085329.78,17286,19.63,74154.8,6.43,2.95,2.91,0,*72
1497085330.98,17287,19.63,74154.3,6.43,2.91,2.91,0,*77
1497085332.18,17288,19.63,74154.0,6.41,2.91,2.73,0,*76
1497085333.36,17289,19.63,74154.3,6.41,2.95,2.91,0,*7F
1497085334.59,17290,19.63,74152.5,6.43,3.03,2.95,0,*7F
1497085335.8,17291,19.63,74152.3,6.41,3.03,2.95,0,*7C
1497085337.0,17292,19.63,74152.3,6.43,2.95,2.91,0,*77
1497085338.18,17293,19.63,74152.5,6.41,2.95,2.91,0,*74
1497085339.4,17294,19.63,74154.8,6.43,2.91,2.85,0,*70
1497085340.58,17295,19.63,74154.5,6.41,2.95,2.91,0,*72
1497085341.78,17296,19.56,74148.8,6.43,2.95,2.95,0,*77
1497085342.96,17297,19.56,74148.5,6.41,2.91,2.95,0,*70
1497085344.14,17298,19.63,74152.5,6.41,2.95,2.95,0,*7B
1497085345.31,17299,19.63,74154.3,6.41,2.95,2.95,0,*7A
1497085346.52,17300,19.63,74154.8,6.41,3.03,2.95,0,*75
1497085347.76,17301,19.63,74150.0,6.41,3.15,3.15,0,*7A
1497085348.96,17302,19.63,74152.5,6.41,3.03,2.95,0,*77
1497085350.17,17303,19.63,74152.8,6.39,2.99,2.91,0,*7F
1497085351.37,17304,19.63,74150.5,6.39,2.91,2.91,0,*70
1497085352.58,17305,19.63,74154.0,6.39,2.99,2.99,0,*71
1497085353.75,17306,19.63,74152.8,6.37,2.95,2.95,0,*7C
1497085354.98,17307,19.63,74150.3,6.39,2.99,3.03,0,*71
1497085356.16,17308,19.63,74148.8,6.37,2.99,2.95,0,*7E
1497085357.36,17309,19.56,74148.5,6.39,2.99,2.99,0,*7D
1497085358.59,17310,19.63,74152.8,6.37,3.07,3.07,0,*7B
1497085359.82,17311,19.63,74152.5,6.37,3.03,3.11,0,*79
1497085361.08,17312,19.63,74154.3,6.39,3.03,3.11,0,*74
1497085362.28,17313,19.63,74150.5,6.37,2.99,3.11,0,*79
1497085363.51,17314,19.63,74154.3,6.37,3.07,3.07,0,*7F
1497085364.68,17315,19.63,74156.8,6.37,2.95,2.95,0,*7E
1497085365.91,17316,19.63,74154.8,6.37,3.07,3.11,0,*7A
1497085367.15,17317,19.63,74154.5,6.39,3.25,3.33,0,*75
1497085368.32,17318,19.63,74152.5,6.41,2.95,2.95,0,*72
1497085369.53,17319,19.63,74152.5,6.37,2.95,3.07,0,*78
1497085370.7,17320,19.63,74152.3,6.37,2.95,2.95,0,*78
1497085371.87,17321,19.63,74152.8,6.37,2.95,2.95,0,*79
1497085373.13,17322,19.63,74152.5,6.39,2.81,2.89,0,*7C
1497085374.35,17323,19.63,74154.0,6.37,2.85,2.85,0,*7B
1497085375.55,17324,19.63,74150.8,6.37,2.95,3.07,0,*76
1497085376.76,17325,19.63,74154.0,6.39,2.91,2.91,0,*73
1497085377.94,17326,19.63,74154.5,6.37,2.65,2.65,0,*7E
1497085379.17,17327,19.63,74154.0,6.35,2.95,2.89,0,*70
1497085380.44,17328,19.63,74152.8,6.35,3.07,3.07,0,*72
1497085381.64,17329,19.63,74152.3,6.35,2.99,2.99,0,*73
1497085382.9,17330,19.63,74152.5,6.35,3.07,3.07,0,*7B
1497085384.15,17331,19.63,74154.8,6.35,2.85,2.85,0,*7A
1497085385.4,17332,19.63,74154.3,6.35,2.89,2.85,0,*75
1497085386.66,17333,19.63,74154.5,6.35,2.89,2.89,0,*78
1497085387.91,17334,19.56,74148.8,6.35,2.85,2.85,0,*7F
1497085389.16,17335,19.63,74154.8,6.35,2.77,2.85,0,*73
1497085390.42,17336,19.63,74152.3,6.31,2.59,2.73,0,*71
1497085391.68,17337,19.63,74156.0,6.35,2.89,2.89,0,*7C
1497085392.93,17338,19.63,74150.8,6.31,2.85,2.85,0,*77
1497085394.18,17339,19.63,74152.5,6.31,2.81,2.85,0,*72
1497085395.43,17340,19.63,74154.0,6.35,2.89,2.85,0,*70
1497085396.68,17341,19.63,74150.8,6.35,2.89,2.85,0,*71
1497085397.94,17342,19.63,74152.8,6.35,2.89,2.89,0,*7E
1497085399.14,17343,19.63,74154.3,6.31,2.91,2.91,0,*7B
1497085400.35,17344,19.63,74152.8,6.35,2.95,2.99,0,*74
1497085401.56,17345,19.63,74152.3,6.31,2.91,2.91,0,*7D
1497085402.76,17346,19.63,74152.0,6.31,2.95,2.95,0,*7E
1497085403.96,17347,19.63,74154.3,6.31,2.91,2.91,0,*7F
1497085405.17,17348,19.63,74150.5,6.35,2.99,2.95,0,*78
1497085406.37,17349,19.63,74152.5,6.35,2.95,2.95,0,*75
1497085407.6,17350,19.63,74152.3,6.31,2.91,2.85,0,*7C
1497085408.86,17351,19.63,74152.5,6.35,2.81,2.81,0,*7C
1497085410.07,17352,19.63,74148.5,6.35,2.95,2.99,0,*73
1497085411.27,17353,19.63,74150.8,6.31,2.91,2.91,0,*7A
1497085412.48,17354,19.63,74148.8,6.31,2.95,2.95,0,*7D
1497085413.68,17355,19.63,74152.5,6.35,2.95,2.95,0,*78
1497085414.91,17356,19.63,74150.5,6.31,2.91,2.85,0,*7A
1497085416.17,17357,19.63,74148.0,6.31,3.15,3.07,0,*7D
1497085417.43,17358,19.63,74148.5,6.35,3.11,3.11,0,*75
1497085418.69,17359,19.63,74150.8,6.35,3.33,3.33,0,*74
1497085419.92,17360,19.63,74152.5,6.31,3.33,3.29,0,*71
1497085421.18,17361,19.56,74150.5,6.35,3.45,3.45,0,*7F
1497085422.37,17362,19.63,74150.3,6.35,3.55,3.55,0,*7C
1497085423.57,17363,19.63,74150.0,6.35,3.55,3.55,0,*7D
1497085424.8,17364,19.63,74150.0,6.35,3.55,3.67,0,*7B
1497085426.0,17365,19.63,74152.3,6.35,3.55,3.59,0,*77
1497085427.25,17366,19.63,74150.0,6.35,3.45,3.49,0,*74
1497085428.48,17367,19.63,74154.8,6.37,3.49,3.49,0,*7B
1497085429.7,17368,19.63,74154.0,6.37,3.37,3.49,0,*7D
1497085430.93,17369,19.63,74154.8,6.37,3.45,3.49,0,*79
1497085432.18,17370,19.63,74150.3,6.35,3.19,3.07,0,*70
1497085433.44,17371,19.63,74150.0,6.31,3.07,3.19,0,*75
1497085434.68,17372,19.63,74150.0,6.35,3.29,3.49,0,*7B
1497085435.93,17373,19.63,74150.5,6.35,3.45,3.45,0,*7C
1497085437.19,17374,19.63,74150.3,6.35,3.37,3.45,0,*7E
1497085438.42,17375,19.63,74150.0,6.31,3.45,3.55,0,*7F
1497085439.68,17376,19.63,74148.3,6.35,3.45,3.49,0,*75
1497085440.93,17377,19.63,74148.3,6.31,3.41,3.53,0,*7F
1497085442.16,17378,19.56,74148.5,6.31,3.53,3.55,0,*75
1497085443.38,17379,19.63,74150.5,6.35,3.49,3.59,0,*77
1497085444.64,17380,19.63,74150.5,6.35,3.37,3.45,0,*75
1497085445.85,17381,19.63,74154.8,6.35,3.29,3.29,0,*71
1497085447.06,17382,19.63,74148.3,6.35,3.29,3.29,0,*72
1497085448.32,17383,19.63,74152.3,6.35,3.11,3.11,0,*73
1497085449.54,17384,19.56,74148.8,6.31,3.19,3.25,0,*7F
1497085450.77,17385,19.63,74150.8,6.35,3.45,3.55,0,*74
1497085452.03,17386,19.63,74150.0,6.31,3.33,3.33,0,*72
1497085453.23,17387,19.63,74148.8,6.31,3.25,3.25,0,*73
1497085454.49,17388,19.56,74148.5,6.31,3.15,3.19,0,*70
1497085455.7,17389,19.63,74150.0,6.31,3.29,3.25,0,*71
1497085456.94,17390,19.63,74150.3,6.31,3.25,3.41,0,*77
1497085458.17,17391,19.63,74150.0,6.31,3.29,3.53,0,*79
1497085459.4,17392,19.56,74146.8,6.29,3.41,3.49,0,*76
1497085460.64,17393,19.56,74150.0,6.29,3.41,3.49,0,*77
1497085461.87,17394,19.63,74150.8,6.29,3.41,3.41,0,*78
1497085463.11,17395,19.63,74150.5,6.29,3.41,3.49,0,*71
1497085464.34,17396,19.63,74150.0,6.29,3.41,3.41,0,*7A
1497085465.54,17397,19.63,74148.3,6.29,3.49,3.59,0,*7A
1497085466.77,17398,19.63,74152.3,6.27,3.53,3.59,0,*70
1497085467.99,17399,19.56,74148.3,6.29,3.53,3.53,0,*75
1497085469.19,17400,19.56,74148.0,6.29,3.49,3.59,0,*73
1497085470.41,17401,19.63,74150.0,6.29,3.49,3.53,0,*78
1497085471.61,17402,19.63,74150.0,6.29,3.49,3.59,0,*71
1497085472.84,17403,19.63,74148.5,6.27,3.59,3.71,0,*75
1497085474.06,17404,19.63,74148.5,6.29,3.75,3.81,0,*7D
1497085475.29,17405,19.63,74150.8,6.27,3.59,3.75,0,*77
1497085476.49,17406,19.63,74150.0,6.29,3.53,3.63,0,*77
1497085477.69,17407,19.56,74148.8,6.27,3.59,3.63,0,*72
1497085478.96,17408,19.63,74150.0,6.27,3.41,3.41,0,*74
1497085480.19,17409,19.56,74146.0,6.29,3.37,3.49,0,*72
1497085481.46,17410,19.56,74146.5,6.27,3.41,3.49,0,*75
1497085482.73,17411,19.63,74150.5,6.27,3.41,3.41,0,*7C
1497085483.92,17412,19.63,74148.3,6.29,3.49,3.59,0,*70
1497085485.12,17413,19.56,74148.5,6.29,3.49,3.63,0,*78
1497085486.34,17414,19.63,74150.3,6.29,3.49,3.53,0,*7C
1497085487.6,17415,19.56,74148.8,6.27,3.41,3.53,0,*7B
1497085488.86,17416,19.56,74148.0,6.27,3.37,3.49,0,*72
1497085490.09,17417,19.63,74150.3,6.27,3.49,3.63,0,*72
1497085491.32,17418,19.63,74150.3,6.27,3.53,3.63,0,*76
1497085492.55,17419,19.63,74150.0,6.27,3.53,3.63,0,*77
1497085493.8,17420,19.63,74148.5,6.27,3.49,3.53,0,*75
1497085495.06,17421,19.63,74152.5,6.27,3.41,3.49,0,*77
1497085496.33,17422,19.63,74148.3,6.27,3.41,3.41,0,*7C
1497085497.59,17423,19.63,74150.3,6.27,3.49,3.49,0,*7D
1497085498.8,17424,19.63,74150.8,6.25,3.45,3.55,0,*79
1497085500.0,17425,19.63,74152.5,6.29,3.41,3.59,0,*7C
1497085501.26,17426,19.56,74148.5,6.27,3.41,3.53,0,*7B
1497085502.49,17427,19.63,74148.5,6.25,3.33,3.45,0,*7A
1497085503.73,17428,19.63,74152.3,6.25,3.23,3.37,0,*71
1497085504.97,17429,19.63,74148.3,6.25,3.23,3.37,0,*70
1497085506.2,17430,19.56,74148.5,6.25,3.11,3.19,0,*75
1497085507.43,17431,19.63,74150.5,6.25,3.19,3.23,0,*75
1497085508.67,17432,19.63,74148.5,6.25,3.23,3.33,0,*7E
1497085509.91,17433,19.63,74148.8,6.25,3.33,3.45,0,*7F
1497085511.14,17434,19.56,74146.3,6.25,3.33,3.45,0,*78
1497085512.4,17435,19.56,74148.5,6.23,3.11,3.23,0,*7F
1497085513.64,17436,19.56,74144.5,6.25,3.11,3.19,0,*73
1497085514.89,17437,19.63,74148.3,6.23,3.19,3.11,0,*74
1497085516.11,17438,19.63,74152.0,6.25,3.25,3.33,0,*72
1497085517.34,17439,19.63,74150.5,6.23,3.25,3.37,0,*71
1497085518.59,17440,19.63,74148.5,6.23,3.19,3.19,0,*7C
1497085519.85,17441,19.63,74148.8,6.23,3.23,3.37,0,*78
1497085521.09,17442,19.63,74148.5,6.25,3.45,3.49,0,*74
1497085522.35,17443,19.63,74148.3,6.23,3.37,3.45,0,*7A
1497085523.61,17444,19.63,74150.8,6.23,3.33,3.33,0,*78
1497085524.86,17445,19.56,74144.8,6.23,3.19,3.23,0,*70
1497085526.09,17446,19.63,74146.0,6.21,2.81,2.85,0,*7C
1497085527.32,17447,19.63,74146.8,6.21,3.15,3.19,0,*75
1497085528.56,17448,19.56,74146.8,6.19,3.07,3.07,0,*7D
1497085529.77,17449,19.56,74146.5,6.21,3.23,3.29,0,*7D
1497085530.98,17450,19.63,74150.5,6.21,3.29,3.41,0,*71
1497085532.19,17451,19.63,74150.5,6.21,3.29,3.41,0,*70
1497085533.44,17452,19.56,74144.5,6.19,3.41,3.41,0,*76
1497085534.67,17453,19.63,74150.8,6.19,3.41,3.53,0,*74
1497085535.87,17454,19.63,74150.8,6.21,3.53,3.55,0,*7D
1497085537.1,17455,19.63,74150.3,6.21,3.41,3.45,0,*7E
1497085538.32,17456,19.63,74150.8,6.21,3.29,3.41,0,*77
1497085539.55,17457,19.56,74146.8,6.19,3.33,3.41,0,*76
1497085540.8,17458,19.56,74146.8,6.19,3.41,3.41,0,*7C
1497085542.01,17459,19.63,74148.5,6.17,3.25,3.25,0,*73
1497085543.25,17460,19.63,74148.5,6.17,3.29,3.41,0,*77
1497085544.47,17461,19.63,74146.0,6.19,3.53,3.53,0,*76
1497085545.71,17462,19.56,74146.0,6.19,3.45,3.45,0,*75
1497085546.94,17463,19.56,74146.8,6.19,3.41,3.53,0,*77
1497085548.2,17464,19.63,74150.8,6.17,3.37,3.49,0,*74
1497085549.41,17465,19.63,74150.0,6.17,3.25,3.29,0,*70
1497085550.64,17466,19.56,74148.8,6.17,3.29,3.37,0,*70
1497085551.85,17467,19.63,74148.5,6.17,3.25,3.25,0,*7E
1497085553.06,17468,19.63,74150.8,6.17,3.25,3.25,0,*71
1497085554.3,17469,19.56,74146.8,6.17,3.15,3.25,0,*73
1497085555.51,17470,19.63,74148.5,6.15,3.23,3.25,0,*7C
1497085556.74,17471,19.56,74148.5,6.15,3.37,3.33,0,*7F
1497085558.01,17472,19.63,74150.8,6.17,3.41,3.49,0,*72
1497085559.21,17473,19.56,74148.0,6.15,3.25,3.37,0,*7A
1497085560.44,17474,19.56,74146.8,6.17,3.19,3.25,0,*73
1497085561.62,17475,19.56,74146.3,6.15,2.99,2.99,0,*7F
1497085562.8,17476,19.56,74146.0,6.15,2.95,2.99,0,*70
1497085564.04,17477,19.56,74146.5,6.17,3.03,2.99,0,*7D
1497085565.25,17478,19.56,74144.5,6.15,3.11,3.25,0,*75
1497085566.47,17479,19.56,74148.3,6.15,3.33,3.37,0,*77
1497085567.71,17480,19.56,74146.3,6.15,3.11,3.11,0,*75
1497085568.91,17481,19.56,74148.8,6.13,2.99,2.99,0,*72
1497085570.11,17482,19.56,74146.3,6.13,2.95,2.99,0,*7D
1497085571.34,17483,19.56,74146.8,6.13,2.99,3.07,0,*76
1497085572.61,17484,19.63,74150.5,6.09,3.07,3.03,0,*78
1497085573.81,17485,19.63,74150.8,6.13,2.99,2.95,0,*7A
1497085575.04,17486,19.63,74148.3,6.13,2.89,2.95,0,*78
1497085576.3,17487,19.56,74144.8,6.09,3.07,3.19,0,*70
1497085577.56,17488,19.56,74144.3,6.09,3.11,3.07,0,*77
1497085578.75,17489,19.63,74150.3,6.07,2.95,2.95,0,*7F
1497085579.98,17490,19.63,74150.5,6.07,3.11,3.19,0,*7F
1497085581.2,17491,19.56,74146.3,6.07,3.23,3.29,0,*7C
1497085582.44,17492,19.56,74144.3,6.09,3.29,3.33,0,*70
1497085583.68,17493,19.56,74148.5,6.09,3.11,3.29,0,*71
1497085584.91,17494,19.63,74150.5,6.09,3.19,3.29,0,*7E
1497085586.16,17495,19.56,74148.5,6.07,3.03,3.07,0,*76
1497085587.37,17496,19.56,74146.0,6.07,2.95,2.89,0,*7C
1497085588.63,17497,19.56,74146.3,6.05,3.07,3.19,0,*7D
1497085589.86,17498,19.56,74148.3,6.05,2.89,2.99,0,*7C
1497085591.07,17499,19.56,74144.5,6.05,3.25,3.25,0,*7C
1497085592.31,17500,19.63,74150.8,6.07,3.07,3.19,0,*70
1497085593.55,17501,19.56,74146.0,6.05,3.07,3.25,0,*7C
1497085594.75,17502,19.63,74148.5,6.07,3.19,3.29,0,*7E
1497085595.99,17503,19.63,74148.5,6.05,3.19,3.29,0,*7D
1497085597.2,17504,19.56,74146.8,6.05,3.25,3.29,0,*75
1497085598.45,17505,19.56,74146.0,6.05,3.07,3.19,0,*77
1497085599.69,17506,19.56,74144.5,6.05,2.99,3.03,0,*79
1497085600.92,17507,19.56,74148.5,6.05,3.25,3.37,0,*79
1497085602.16,17508,19.63,74148.0,6.05,3.29,3.41,0,*7B
1497085603.4,17509,19.56,74148.0,6.05,3.29,3.37,0,*7B
1497085604.65,17510,19.56,74148.8,6.05,3.19,3.37,0,*70
1497085605.88,17511,19.63,74150.0,6.05,3.29,3.37,0,*72
1497085607.09,17512,19.63,74150.0,6.05,3.25,3.29,0,*72
1497085608.33,17513,19.56,74146.8,6.05,3.25,3.49,0,*75
1497085609.54,17514,19.63,74150.8,6.03,3.23,3.25,0,*78
1497085610.76,17515,19.63,74148.3,6.03,2.99,3.15,0,*7A
1497085611.99,17516,19.63,74148.5,6.03,3.11,3.23,0,*7D
1497085613.17,17517,19.63,74150.0,6.03,2.95,2.99,0,*71
1497085614.41,17518,19.56,74150.0,6.03,2.89,2.89,0,*72
1497085615.61,17519,19.56,74146.8,6.03,2.89,2.95,0,*7E
1497085616.85,17520,19.56,74148.0,6.03,2.89,2.89,0,*79
1497085618.08,17521,19.63,74148.3,6.01,2.89,2.99,0,*7B
1497085619.33,17522,19.56,74146.5,6.01,2.77,2.85,0,*74
1497085620.58,17523,19.56,74148.8,6.01,2.77,2.85,0,*75
1497085621.82,17524,19.56,74146.8,5.99,2.73,2.81,0,*70
1497085623.05,17525,19.56,74148.3,6.01,2.95,2.89,0,*73
1497085624.28,17526,19.56,74146.3,5.99,2.85,2.85,0,*7F
1497085625.52,17527,19.63,74150.3,5.99,3.07,3.19,0,*71
1497085626.75,17528,19.63,74150.8,5.99,3.11,3.19,0,*79
1497085628.01,17529,19.56,74150.0,5.97,2.81,2.89,0,*76
1497085629.27,17530,19.56,74146.3,5.97,2.77,2.81,0,*7F
1497085630.53,17531,19.56,74150.8,5.97,2.89,3.03,0,*74
1497085631.78,17532,19.56,74148.8,5.97,2.89,3.07,0,*73
1497085633.02,17533,19.56,74150.0,5.97,2.91,3.07,0,*7B
1497085634.28,17534,19.56,74148.3,5.97,3.15,3.15,0,*72
1497085635.55,17535,19.63,74152.8,5.97,3.07,3.07,0,*73
1497085636.78,17536,19.56,74148.3,5.95,3.03,3.19,0,*79
1497085638.04,17537,19.56,74150.8,5.97,3.07,3.19,0,*7E
1497085639.28,17538,19.56,74148.5,5.97,3.15,3.25,0,*7D
1497085640.51,17539,19.56,74150.8,5.99,3.11,3.23,0,*70
1497085641.75,17540,19.56,74150.3,5.95,3.07,3.19,0,*7C
1497085642.99,17541,19.63,74148.8,5.95,3.37,3.49,0,*7B
1497085644.22,17542,19.56,74148.8,5.97,3.29,3.49,0,*75
1497085645.48,17543,19.56,74150.8,5.97,3.37,3.49,0,*7B
1497085646.72,17544,19.56,74148.0,5.97,3.29,3.49,0,*73
1497085647.96,17545,19.56,74150.0,5.95,3.37,3.49,0,*7F
1497085649.18,17546,19.63,74150.3,5.95,3.19,3.19,0,*75
1497085650.4,17547,19.56,74148.0,5.95,3.25,3.41,0,*76
1497085651.63,17548,19.56,74148.8,5.97,3.29,3.37,0,*76
1497085652.87,17549,19.63,74150.3,5.97,3.25,3.37,0,*7B
1497085654.1,17550,19.63,74152.0,5.97,3.25,3.37,0,*73
1497085655.34,17551,19.63,74150.3,5.97,3.25,3.49,0,*7B
1497085656.57,17552,19.56,74150.8,5.97,3.19,3.25,0,*7D
1497085657.81,17553,19.56,74148.3,5.97,3.25,3.41,0,*71
1497085659.04,17554,19.63,74150.8,5.95,3.15,3.19,0,*7A
1497085660.28,17555,19.63,74150.0,5.95,3.15,3.19,0,*7B
1497085661.47,17556,19.56,74148.5,5.95,3.25,3.29,0,*78
1497085662.69,17557,19.56,74146.8,5.95,3.25,3.41,0,*77
1497085663.9,17558,19.63,74150.3,5.95,3.15,3.25,0,*79
1497085665.13,17559,19.56,74144.8,5.95,3.19,3.19,0,*7B
1497085666.36,17560,19.56,74146.0,5.95,3.19,3.37,0,*7D
1497085667.57,17561,19.56,74146.8,5.95,3.25,3.37,0,*73
1497085668.81,17562,19.56,74146.3,5.97,3.29,3.37,0,*7E
1497085670.04,17563,19.56,74148.5,5.97,3.25,3.37,0,*73
1497085671.25,17564,19.63,74148.0,5.95,3.19,3.25,0,*7A
1497085672.52,17565,19.56,74144.3,5.93,3.15,3.37,0,*72
1497085673.72,17566,19.56,74146.0,5.95,3.19,3.25,0,*78
1497085674.94,17567,19.63,74148.5,5.95,3.15,3.25,0,*75
1497085676.15,17568,19.56,74146.0,5.95,3.19,3.25,0,*76
1497085677.38,17569,19.56,74142.8,5.95,3.19,3.37,0,*74
1497085678.64,17570,19.56,74146.3,5.93,3.15,3.19,0,*7A
1497085679.86,17571,19.56,74148.8,5.95,2.95,3.15,0,*78
1497085681.04,17572,19.56,74148.5,5.95,3.25,3.29,0,*7E
1497085682.23,17573,19.56,74148.5,5.95,3.29,3.29,0,*73
1497085683.47,17574,19.63,74150.0,5.95,3.37,3.49,0,*7D
1497085684.67,17575,19.56,74148.0,5.95,3.53,3.59,0,*7F
1497085685.91,17576,19.56,74150.3,5.95,3.15,3.19,0,*7A
1497085687.15,17577,19.63,74148.5,5.95,3.07,3.07,0,*77
1497085688.42,17578,19.63,74148.0,5.93,3.03,3.03,0,*7E
1497085689.65,17579,19.56,74146.5,5.95,2.77,2.89,0,*78
1497085690.9,17580,19.56,74150.0,5.93,3.15,3.25,0,*7A
1497085692.14,17581,19.63,74148.0,5.93,3.23,3.25,0,*7E
1497085693.38,17582,19.56,74148.0,5.93,3.25,3.33,0,*7C
1497085694.64,17583,19.56,74150.8,5.93,3.11,3.11,0,*7A
1497085695.82,17584,19.63,74150.3,5.91,2.99,2.99,0,*7F
1497085697.06,17585,19.56,74150.0,5.91,3.03,3.11,0,*7D
1497085698.32,17586,19.56,74150.3,5.89,3.23,3.33,0,*75
1497085699.53,17587,19.56,74148.8,5.91,3.23,3.25,0,*7A
1497085700.77,17588,19.56,74148.5,5.91,3.33,3.45,0,*72
1497085701.95,17589,19.63,74148.8,5.91,3.55,3.59,0,*7E
1497085703.12,17590,19.56,74148.8,5.91,3.55,3.59,0,*76
1497085704.36,17591,19.56,74146.8,5.91,3.33,3.37,0,*7F
1497085705.57,17592,19.56,74150.5,5.91,3.23,3.25,0,*7E
1497085706.8,17593,19.56,74148.5,5.91,3.33,3.49,0,*74
1497085708.01,17594,19.56,74146.8,5.91,3.55,3.75,0,*7C
1497085709.21,17595,19.56,74150.8,5.91,3.55,3.67,0,*7E
1497085710.45,17596,19.56,74150.3,5.91,3.37,3.45,0,*79
1497085711.69,17597,19.56,74150.3,5.91,3.15,3.15,0,*7D
1497085712.91,17598,19.56,74150.8,5.91,3.23,3.25,0,*74
1497085714.08,17599,19.56,74148.0,5.91,3.55,3.59,0,*7F
1497085715.29,17600,19.56,74148.8,5.91,3.49,3.59,0,*71
1497085716.53,17601,19.56,74148.0,5.91,3.15,3.23,0,*74
1497085717.76,17602,19.63,74152.5,5.89,3.29,3.33,0,*70
1497085718.99,17603,19.56,74146.8,5.91,3.33,3.45,0,*72
1497085720.23,17604,19.56,74148.3,5.91,3.33,3.45,0,*75
1497085721.47,17605,19.56,74150.8,5.91,3.11,3.33,0,*75
1497085722.73,17606,19.56,74150.8,5.89,3.11,3.23,0,*7E
1497085723.96,17607,19.63,74148.8,5.89,3.29,3.41,0,*70
1497085725.2,17608,19.56,74150.3,5.91,3.33,3.45,0,*79
1497085726.4,17609,19.56,74150.8,5.91,3.55,3.67,0,*78
1497085727.65,17610,19.56,74150.5,5.89,3.53,3.67,0,*7F
1497085728.87,17611,19.56,74150.3,5.89,3.55,3.67,0,*78
1497085730.08,17612,19.56,74148.0,5.91,3.55,3.67,0,*72
1497085731.31,17613,19.56,74150.0,5.89,3.29,3.45,0,*71
1497085732.52,17614,19.56,74150.0,5.91,3.33,3.55,0,*75
1497085733.75,17615,19.56,74150.8,5.91,3.33,3.45,0,*75
1497085734.98,17616,19.56,74148.3,5.91,3.49,3.67,0,*7B
1497085736.18,17617,19.56,74150.5,5.91,3.55,3.67,0,*77